Simultaneous Nadir Overpasses (SNOs) Predictions

Prediction of SNOs between AQUA and NOAA-19 Satellite Orbit:

Table of predicted SNOs for the next 14.0 days since TLE Epoch: 9/25/2021
Index Date (AQUA) Time (AQUA) Lat,Lon (AQUA) SZA (AQUA ) Date (NOAA-19) Time (NOAA-19) Lat,Lon (NOAA-19) SZA (NOAA-19 ) Distance(km) Time Diff (sec)
1 09/25/2021 04:49:42 -78.46, -93.25 100.05 09/25/2021 04:49:29 -78.48, -93.21 100.03 1.74 13
2 09/27/2021 10:23:27 78.47, 3.29 80.82 09/27/2021 10:22:41 78.44, 3.32 80.80 3.59 46
3 09/27/2021 11:12:54 -78.49, 170.79 99.14 09/27/2021 11:13:35 -78.49, 170.96 99.16 3.58 41
4 09/29/2021 16:46:38 78.47, -92.49 81.68 09/29/2021 16:46:47 78.46, -92.49 81.67 1.04 9
5 10/01/2021 22:20:22 -78.45, 4.14 97.49 10/01/2021 22:19:49 -78.44, 4.24 97.49 2.50 33
6 10/01/2021 23:09:49 78.47, 171.70 82.55 10/01/2021 23:10:53 78.47, 171.67 82.54 0.64 64
7 10/04/2021 03:54:06 78.44, 100.78 83.35 10/04/2021 03:53:01 78.41, 100.79 83.33 3.73 65
8 10/04/2021 04:43:33 -78.46, -91.69 96.62 10/04/2021 04:43:55 -78.45, -91.62 96.63 1.81 22
9 10/06/2021 10:17:17 78.45, 4.91 84.23 10/06/2021 10:17:07 78.42, 4.91 84.19 4.32 10
10 10/06/2021 11:06:47 -78.60, 171.78 95.58 10/06/2021 11:07:57 -78.61, 173.48 95.69 37.25 70
11 10/08/2021 15:51:00 -78.41, 101.69 94.99 10/08/2021 15:50:09 -78.40, 101.63 94.99 2.18 51



Historial Predications of SNOs between AQUA and NOAA-19
